KK6ZOD Weather Reports


time (UTC)temp
C
wind
direction
speed
KPH
gust
KPH
rain 1hr
cm
rain 24hr
cm
rain mn
cm
humidity
%
barometer
mb
20260506103502 2 277 0.0 0.0 0.00 0.00 0.00 88 1019.9
20260506103050 2 0 0.0 0.0 0.00 0.00 0.00 88 1019.8
20260506103017 2 277 0.0 0.0 0.00 0.00 0.00 88 1019.9
20260506102503 2 277 0.0 0.0 0.00 0.00 0.00 88 1019.9
20260506102003 2 277 0.0 0.0 0.00 0.00 0.00 88 1019.9
20260506101605 2 0 0.0 0.0 0.00 0.00 0.00 88 1019.8
20260506101525 2 277 0.0 0.0 0.00 0.00 0.00 88 1019.9
20260506101002 2 277 0.0 0.0 0.00 0.00 0.00 87 1019.9
20260506100503 3 277 0.0 0.0 0.00 0.00 0.00 88 1019.9
20260506100052 3 0 0.0 0.0 0.00 0.00 0.00 88 1019.7
20260506100028 3 277 0.0 0.0 0.00 0.00 0.00 88 1019.9
20260506095506 3 277 0.0 0.0 0.00 0.00 0.00 87 1019.9
20260506094558 3 0 0.0 0.0 0.00 0.00 0.00 88 1019.7
20260506094521 3 277 0.0 0.0 0.00 0.00 0.00 88 1019.8
20260506093504 3 277 0.0 0.0 0.00 0.00 0.00 87 1019.7
20260506093058 3 0 0.0 0.0 0.00 0.00 0.00 87 1019.5
20260506093005 3 277 0.0 0.0 0.00 0.00 0.00 87 1019.7
20260506092503 3 277 0.0 0.0 0.00 0.00 0.00 87 1019.7
20260506092003 3 277 0.0 0.0 0.00 0.00 0.00 87 1019.6
20260506091552 3 0 0.0 0.0 0.00 0.00 0.00 87 1019.5
20260506091506 3 277 0.0 0.0 0.00 0.00 0.00 87 1019.6
20260506091003 4 277 0.0 0.0 0.00 0.00 0.00 87 1019.7
20260506090502 4 277 0.0 0.0 0.00 0.00 0.00 86 1019.6
20260506090101 4 0 0.0 0.0 0.00 0.00 0.00 86 1019.5
20260506090027 4 277 0.0 0.0 0.00 0.00 0.00 86 1019.6
20260506085503 4 277 0.0 0.0 0.00 0.00 0.00 86 1019.6
20260506085003 4 277 0.0 0.0 0.00 0.00 0.00 85 1019.6
20260506084557 4 0 0.0 0.0 0.00 0.00 0.00 85 1019.5
20260506084517 4 277 0.0 0.0 0.00 0.00 0.00 85 1019.6
20260506083507 5 277 0.0 0.0 0.00 0.00 0.00 84 1019.6
20260506083047 5 0 0.0 0.0 0.00 0.00 0.00 84 1019.5
20260506083019 5 277 0.0 0.0 0.00 0.00 0.00 85 1019.6
20260506082505 5 277 0.0 0.0 0.00 0.00 0.00 84 1019.6
20260506082002 5 277 0.0 0.0 0.00 0.00 0.00 85 1019.6
20260506081600 5 0 0.0 0.0 0.00 0.00 0.00 85 1019.5
20260506081503 5 277 0.0 0.0 0.00 0.00 0.00 85 1019.6
20260506081009 5 277 0.0 0.0 0.00 0.00 0.00 83 1019.6
20260506080504 5 277 0.0 0.0 0.00 0.00 0.00 82 1019.5
20260506073510 6 277 0.0 0.0 0.00 0.00 0.00 81 1018.9
20260506073054 6 0 0.0 0.0 0.00 0.00 0.00 81 1018.7
20260506073004 6 277 0.0 0.0 0.00 0.00 0.00 81 1018.8
20260506072502 6 277 0.0 0.0 0.00 0.00 0.00 81 1018.8
20260506072003 6 277 0.0 0.0 0.00 0.00 0.00 80 1018.7
20260506071549 6 0 0.0 0.0 0.00 0.00 0.00 80 1018.6
20260506071507 6 277 0.0 0.0 0.00 0.00 0.00 80 1018.7
20260506071002 7 277 0.0 0.0 0.00 0.00 0.00 79 1018.7
20260506070502 7 277 0.0 1.6 0.00 0.00 0.00 78 1018.7
20260506061551 9 0 0.0 0.0 0.00 0.00 0.00 75 1018.3
20260506061523 9 277 0.0 0.0 0.00 0.00 0.00 75 1018.3
20260506061004 10 277 0.0 0.0 0.00 0.00 0.00 75 1018.2
20260506060506 10 277 0.0 0.0 0.00 0.00 0.00 74 1018.2
20260506050115 12 0 0.0 3.2 0.00 0.00 0.00 65 1017.6
20260506045003 13 277 0.0 3.2 0.00 0.00 0.00 63 1017.6
20260506044553 14 0 0.0 0.0 0.00 0.00 0.00 62 1017.5
20260506044506 14 277 0.0 0.0 0.00 0.00 0.00 62 1017.6
20260506044002 14 277 0.0 0.0 0.00 0.00 0.00 62 1017.6
20260506043057 15 0 1.6 4.8 0.00 0.00 0.00 61 1017.5
20260506043012 15 277 0.0 4.8 0.00 0.00 0.00 61 1017.5
20260506042503 15 238 0.0 4.8 0.00 0.00 0.00 61 1017.5
20260506041601 15 191 1.6 6.4 0.00 0.00 0.00 58 1017.3
20260506041511 15 190 1.6 6.4 0.00 0.00 0.00 58 1017.4
20260506041003 15 275 1.6 6.4 0.00 0.00 0.00 55 1017.4
20260506040051 15 0 0.0 9.7 0.00 0.00 0.00 48 1017.3
20260506035507 16 262 0.0 9.7 0.00 0.00 0.00 46 1017.3
20260506035009 16 293 0.0 3.2 0.00 0.00 0.00 44 1017.2
20260506034552 16 0 0.0 3.2 0.00 0.00 0.00 42 1017.1
20260506034522 16 293 0.0 3.2 0.00 0.00 0.00 42 1017.1
20260506034007 17 298 0.0 4.8 0.00 0.00 0.00 40 1017.0
20260506033052 17 300 0.0 4.8 0.00 0.00 0.00 38 1016.8
20260506032003 18 295 0.0 11.3 0.00 0.00 0.00 36 1016.8
20260506031549 18 0 3.2 11.3 0.00 0.00 0.00 35 1016.6
20260506031003 18 5 3.2 12.9 0.00 0.00 0.00 34 1016.6
20260506030505 18 255 1.6 14.5 0.00 0.00 0.00 34 1016.5
20260506030050 18 313 3.2 16.1 0.00 0.00 0.00 34 1016.5
20260506025507 18 292 4.8 16.1 0.00 0.00 0.00 33 1016.3
20260506024548 19 323 3.2 16.1 0.00 0.00 0.00 36 1016.3
20260506024534 19 323 3.2 16.1 0.00 0.00 0.00 35 1016.2
20260506024009 19 315 3.2 11.3 0.00 0.00 0.00 36 1016.1
20260506023508 19 282 1.6 11.3 0.00 0.00 0.00 37 1016.1
20260506023107 19 244 3.2 8.0 0.00 0.00 0.00 36 1016.1
20260506023024 19 317 3.2 8.0 0.00 0.00 0.00 36 1016.0
20260506022506 19 332 3.2 12.9 0.00 0.00 0.00 37 1016.0
20260506022008 20 355 1.6 12.9 0.00 0.00 0.00 37 1015.9
20260506021552 20 0 1.6 17.7 0.00 0.00 0.00 37 1016.0
20260506020503 20 279 3.2 12.9 0.00 0.00 0.00 38 1015.8
20260506020053 20 304 4.8 12.9 0.00 0.00 0.00 38 1015.9
20260506015506 20 302 3.2 16.1 0.00 0.00 0.00 38 1015.8
20260506015007 20 302 6.4 17.7 0.00 0.00 0.00 37 1015.7
20260506014554 20 331 8.0 17.7 0.00 0.00 0.00 37 1015.8
20260506013505 20 302 3.2 19.3 0.00 0.00 0.00 40 1015.7
20260506013054 20 5 4.8 19.3 0.00 0.00 0.00 40 1015.7
20260506013027 20 282 4.8 19.3 0.00 0.00 0.00 40 1015.6
20260506012511 21 11 6.4 19.3 0.00 0.00 0.00 40 1015.5
20260506012009 21 302 8.0 19.3 0.00 0.00 0.00 39 1015.4
20260506011555 21 308 4.8 12.9 0.00 0.00 0.00 39 1015.3
20260506011552 21 269 4.8 12.9 0.00 0.00 0.00 39 1015.5
20260506011006 21 324 6.4 14.5 0.00 0.00 0.00 39 1015.3
20260506010514 21 46 4.8 19.3 0.00 0.00 0.00 38 1015.2
20260506010049 21 299 6.4 19.3 0.00 0.00 0.00 36 1015.3
20260506010011 21 317 8.0 19.3 0.00 0.00 0.00 36 1015.2
20260506005504 21 267 8.0 22.5 0.00 0.00 0.00 37 1015.3
20260506004548 21 336 6.4 22.5 0.00 0.00 0.00 37 1015.1
20260506004010 22 259 11.3 22.5 0.00 0.00 0.00 36 1015.0
20260506003507 22 46 6.4 17.7 0.00 0.00 0.00 36 1014.8
20260506003053 22 234 8.0 16.1 0.00 0.00 0.00 37 1014.9
20260506003020 22 268 8.0 16.1 0.00 0.00 0.00 37 1014.8
20260506002514 21 340 4.8 14.5 0.00 0.00 0.00 36 1014.8
20260506002009 21 339 4.8 14.5 0.00 0.00 0.00 36 1014.8
20260506001557 22 342 4.8 14.5 0.00 0.00 0.00 35 1014.9
20260506001525 22 288 3.2 14.5 0.00 0.00 0.00 35 1014.8
20260506001010 22 305 4.8 11.3 0.00 0.00 0.00 37 1014.7
20260506000511 22 292 3.2 11.3 0.00 0.00 0.00 37 1014.7
20260506000104 21 5 3.2 9.7 0.00 0.00 0.00 38 1014.8
20260506000044 21 286 4.8 9.7 0.00 0.00 0.00 38 1014.7
20260505235507 21 261 3.2 11.3 0.00 0.00 0.00 40 1014.7
20260505235008 21 305 3.2 11.3 0.00 0.00 0.00 38 1014.7
20260505234549 21 313 3.2 8.0 0.00 0.00 0.00 37 1014.8
20260505234538 21 315 1.6 8.0 0.00 0.00 0.00 37 1014.8
20260505234007 21 287 3.2 8.0 0.00 0.00 0.00 35 1014.8
20260505233505 21 328 1.6 16.1 0.00 0.00 0.00 36 1014.7
20260505233053 22 326 3.2 16.1 0.00 0.00 0.00 35 1014.8
20260505232512 22 271 9.7 16.1 0.00 0.00 0.00 34 1014.7
20260505231547 22 24 4.8 12.9 0.00 0.00 0.00 37 1014.7
20260505231006 22 19 1.6 11.3 0.00 0.00 0.00 34 1014.7
20260505230510 22 305 3.2 11.3 0.00 0.00 0.00 34 1014.7
20260505230118 22 315 1.6 9.7 0.00 0.00 0.00 34 1014.7
20260505230046 22 315 1.6 9.7 0.00 0.00 0.00 34 1014.7
20260505225515 23 328 3.2 11.3 0.00 0.00 0.00 36 1014.7
20260505225011 23 311 3.2 16.1 0.00 0.00 0.00 34 1014.7
20260505224549 24 294 4.8 22.5 0.00 0.00 0.00 35 1014.7
20260505224004 23 232 6.4 22.5 0.00 0.00 0.00 36 1014.6
20260505223503 22 340 3.2 22.5 0.00 0.00 0.00 36 1014.7
20260505223051 22 257 3.2 14.5 0.00 0.00 0.00 36 1014.8
20260505223016 22 300 3.2 9.7 0.00 0.00 0.00 35 1014.7
20260505222508 21 302 1.6 14.5 0.00 0.00 0.00 35 1014.8
20260505222006 22 22 4.8 20.9 0.00 0.00 0.00 36 1014.9
20260505221555 22 360 3.2 20.9 0.00 0.00 0.00 36 1014.9
20260505221512 22 360 3.2 20.9 0.00 0.00 0.00 35 1014.8
20260505221004 22 88 3.2 14.5 0.00 0.00 0.00 34 1014.8
20260505220503 22 88 4.8 11.3 0.00 0.00 0.00 35 1014.9
20260505220056 22 332 3.2 11.3 0.00 0.00 0.00 36 1014.9
20260505220005 22 297 3.2 11.3 0.00 0.00 0.00 36 1014.9
20260505215503 22 49 3.2 11.3 0.00 0.00 0.00 34 1014.9
20260505215006 23 323 3.2 8.0 0.00 0.00 0.00 34 1014.8
20260505214549 22 266 3.2 17.7 0.00 0.00 0.00 33 1014.9
20260505214003 23 20 1.6 22.5 0.00 0.00 0.00 34 1015.0
20260505213508 23 289 3.2 22.5 0.00 0.00 0.00 33 1015.0
20260505213049 23 296 4.8 20.9 0.00 0.00 0.00 34 1014.9
20260505212504 23 46 6.4 17.7 0.00 0.00 0.00 35 1015.0
20260505212008 23 94 1.6 19.3 0.00 0.00 0.00 33 1015.0
20260505211559 23 88 4.8 19.3 0.00 0.00 0.00 34 1014.9
20260505211522 23 34 4.8 19.3 0.00 0.00 0.00 34 1015.0
20260505211005 23 65 4.8 16.1 0.00 0.00 0.00 33 1015.1
20260505210504 23 34 4.8 14.5 0.00 0.00 0.00 31 1015.0
20260505210056 23 38 4.8 16.1 0.00 0.00 0.00 35 1014.9
20260505210014 23 181 4.8 16.1 0.00 0.00 0.00 33 1015.1
20260505205504 23 82 8.0 16.1 0.00 0.00 0.00 34 1015.3
20260505205003 22 277 3.2 19.3 0.00 0.00 0.00 35 1015.3
20260505204547 22 27 6.4 19.3 0.00 0.00 0.00 33 1014.9
20260505204508 22 52 4.8 19.3 0.00 0.00 0.00 32 1015.3
20260505204003 23 48 4.8 19.3 0.00 0.00 0.00 34 1015.3
20260505203503 22 352 3.2 19.3 0.00 0.00 0.00 34 1015.3
20260505203051 22 305 4.8 19.3 0.00 0.00 0.00 34 1015.0
20260505202005 22 29 4.8 19.3 0.00 0.00 0.00 33 1015.2
20260505201552 22 78 6.4 17.7 0.00 0.00 0.00 32 1015.0
20260505201004 22 67 3.2 17.7 0.00 0.00 0.00 33 1015.3
20260505200503 22 342 4.8 20.9 0.00 0.00 0.00 34 1015.3
20260505200108 22 72 6.4 20.9 0.00 0.00 0.00 35 1015.1
20260505200022 22 44 8.0 20.9 0.00 0.00 0.00 36 1015.3
20260505195505 22 86 9.7 17.7 0.00 0.00 0.00 35 1015.3
20260505195007 22 55 1.6 12.9 0.00 0.00 0.00 32 1015.3
20260505194549 22 66 3.2 14.5 0.00 0.00 0.00 35 1015.1
20260505194526 22 32 3.2 14.5 0.00 0.00 0.00 36 1015.3
20260505194004 22 308 3.2 27.4 0.00 0.00 0.00 36 1015.3
20260505193509 22 46 3.2 27.4 0.00 0.00 0.00 35 1015.3
20260505193104 22 50 6.4 16.1 0.00 0.00 0.00 35 1015.1
20260505193023 22 34 6.4 16.1 0.00 0.00 0.00 34 1015.3
20260505192504 22 51 6.4 16.1 0.00 0.00 0.00 36 1015.3
20260505192003 21 352 3.2 22.5 0.00 0.00 0.00 37 1015.3
20260505191607 21 302 6.4 22.5 0.00 0.00 0.00 37 1015.3
20260505191005 21 346 8.0 14.5 0.00 0.00 0.00 36 1015.3
20260505190505 21 355 3.2 14.5 0.00 0.00 0.00 39 1015.4
20260505190056 21 18 6.4 17.7 0.00 0.00 0.00 38 1015.4
20260505190019 21 350 6.4 17.7 0.00 0.00 0.00 38 1015.3
20260505185509 21 338 3.2 17.7 0.00 0.00 0.00 39 1015.3
20260505185007 21 296 4.8 16.1 0.00 0.00 0.00 41 1015.2
20260505184557 21 305 4.8 16.1 0.00 0.00 0.00 41 1015.4
20260505184521 21 57 4.8 16.1 0.00 0.00 0.00 40 1015.3
20260505184006 21 42 4.8 16.1 0.00 0.00 0.00 39 1015.3
20260505183508 21 297 4.8 16.1 0.00 0.00 0.00 41 1015.3
20260505183053 21 16 3.2 14.5 0.00 0.00 0.00 41 1015.4
20260505183019 20 82 4.8 14.5 0.00 0.00 0.00 40 1015.3
20260505182507 20 86 6.4 16.1 0.00 0.00 0.00 42 1015.3
20260505182009 20 292 3.2 16.1 0.00 0.00 0.00 40 1015.3
20260505181557 20 54 4.8 16.1 0.00 0.00 0.00 41 1015.4
20260505181511 20 57 4.8 16.1 0.00 0.00 0.00 43 1015.2
20260505181003 20 50 3.2 12.9 0.00 0.00 0.00 41 1015.3
20260505180504 19 295 3.2 12.9 0.00 0.00 0.00 41 1015.3
20260505180054 19 242 3.2 11.3 0.00 0.00 0.00 41 1015.4
20260505180014 19 239 3.2 11.3 0.00 0.00 0.00 42 1015.3
20260505175506 19 50 3.2 11.3 0.00 0.00 0.00 43 1015.3
20260505175005 18 51 1.6 9.7 0.00 0.00 0.00 44 1015.4
20260505174554 18 44 3.2 11.3 0.00 0.00 0.00 42 1015.5
20260505174521 18 23 3.2 9.7 0.00 0.00 0.00 44 1015.4
20260505174006 18 329 3.2 11.3 0.00 0.00 0.00 43 1015.4
20260505173510 18 53 1.6 11.3 0.00 0.00 0.00 44 1015.4
20260505173054 17 312 3.2 8.0 0.00 0.00 0.00 45 1015.5
20260505173025 17 340 3.2 8.0 0.00 0.00 0.00 46 1015.4
20260505172506 17 66 1.6 9.7 0.00 0.00 0.00 46 1015.4
20260505172008 17 321 4.8 9.7 0.00 0.00 0.00 49 1015.4
20260505171553 16 36 3.2 11.3 0.00 0.00 0.00 47 1015.4
20260505171522 16 76 4.8 11.3 0.00 0.00 0.00 47 1015.4
20260505171010 16 321 1.6 11.3 0.00 0.00 0.00 50 1015.3
20260505170508 16 321 4.8 11.3 0.00 0.00 0.00 50 1015.4
20260505170053 16 350 3.2 8.0 0.00 0.00 0.00 52 1015.5
20260505170024 16 312 3.2 8.0 0.00 0.00 0.00 50 1015.4
20260505165504 16 13 1.6 4.8 0.00 0.00 0.00 52 1015.4
20260505165003 16 243 1.6 6.4 0.00 0.00 0.00 58 1015.5
20260505164550 15 246 3.2 6.4 0.00 0.00 0.00 55 1015.5
20260505164518 15 285 3.2 6.4 0.00 0.00 0.00 55 1015.5
20260505164005 15 278 3.2 6.4 0.00 0.00 0.00 56 1015.6
20260505163505 15 41 3.2 6.4 0.00 0.00 0.00 60 1015.7
20260505163051 14 0 1.6 4.8 0.00 0.00 0.00 60 1015.5
20260505163021 14 11 1.6 4.8 0.00 0.00 0.00 61 1015.8
20260505162506 14 209 1.6 3.2 0.00 0.00 0.00 64 1015.8
20260505162015 13 226 1.6 3.2 0.00 0.00 0.00 64 1015.9
20260505161549 13 0 0.0 6.4 0.00 0.00 0.00 67 1015.6
20260505161525 13 225 0.0 6.4 0.00 0.00 0.00 66 1015.9
20260505161008 12 225 1.6 6.4 0.00 0.00 0.00 69 1015.9
20260505160507 12 207 1.6 8.0 0.00 0.00 0.00 70 1015.9
20260505153052 9 352 1.6 3.2 0.00 0.00 0.00 80 1015.8
20260505153019 9 60 1.6 3.2 0.00 0.00 0.00 80 1016.0
20260505152505 8 111 1.6 3.2 0.00 0.00 0.00 80 1015.9
20260505152013 8 112 1.6 4.8 0.00 0.00 0.00 81 1015.9
20260505151552 8 112 1.6 4.8 0.00 0.00 0.00 82 1015.7
20260505151521 8 92 1.6 4.8 0.00 0.00 0.00 82 1015.9
20260505151009 8 216 1.6 4.8 0.00 0.00 0.00 84 1015.8
20260505150507 7 111 1.6 3.2 0.00 0.00 0.00 84 1015.8
20260505140507 2 217 0.0 0.0 0.00 0.00 0.00 93 1015.4
20260505130111 -1 0 0.0 0.0 0.00 0.00 0.00 91 1015.0
20260505125003 -1 217 0.0 0.0 0.00 0.00 0.00 91 1014.9
20260505124602 -1 0 0.0 0.0 0.00 0.00 0.00 91 1015.0
20260505124505 0 217 0.0 0.0 0.00 0.00 0.00 91 1014.9
20260505124004 0 217 0.0 0.0 0.00 0.00 0.00 91 1014.8
20260505123504 0 217 0.0 0.0 0.00 0.00 0.00 91 1014.9
20260505123055 0 0 0.0 0.0 0.00 0.00 0.00 90 1014.9
20260505123008 0 217 0.0 0.0 0.00 0.00 0.00 90 1014.8
20260505122504 0 217 0.0 0.0 0.00 0.00 0.00 90 1014.9
20260505122001 0 217 0.0 0.0 0.00 0.00 0.00 90 1014.9
20260505121556 0 0 0.0 0.0 0.00 0.00 0.00 90 1014.7
20260505121508 0 217 0.0 0.0 0.00 0.00 0.00 90 1014.9
20260505121002 0 217 0.0 0.0 0.00 0.00 0.00 90 1014.8
20260505120503 0 217 0.0 0.0 0.00 0.00 0.00 90 1014.7
20260505120104 0 0 0.0 0.0 0.00 0.00 0.00 90 1014.4
20260505120005 0 217 0.0 0.0 0.00 0.00 0.00 90 1014.7
20260505115502 0 217 0.0 0.0 0.00 0.00 0.00 90 1014.7
20260505115003 0 217 0.0 0.0 0.00 0.00 0.00 90 1014.7
20260505114552 0 0 0.0 0.0 0.00 0.00 0.00 90 1014.2
20260505114503 0 217 0.0 0.0 0.00 0.00 0.00 90 1014.6
20260505114003 0 217 0.0 0.0 0.00 0.00 0.00 90 1014.5
20260505113503 0 217 0.0 0.0 0.00 0.00 0.00 90 1014.5
20260505113055 0 0 0.0 0.0 0.00 0.00 0.00 90 1014.3
20260505113005 0 217 0.0 0.0 0.00 0.00 0.00 91 1014.6
20260505112506 0 217 0.0 0.0 0.00 0.00 0.00 90 1014.6
20260505112004 0 217 0.0 0.0 0.00 0.00 0.00 90 1014.6
20260505111548 0 0 0.0 0.0 0.00 0.00 0.00 90 1014.3
20260505111508 0 217 0.0 0.0 0.00 0.00 0.00 90 1014.6
20260505111008 1 217 0.0 0.0 0.00 0.00 0.00 90 1014.6
20260505110505 1 217 0.0 0.0 0.00 0.00 0.00 91 1014.5